User: anonymous   Login
Location: Ellerstadt
(49.4644°N, 8.2615°E)
Time: 22:01:25
(UTC+00:00)
Language:

FALCON 9 DEB - Orbit

View from above orbital plane
View from above orbital plane
View from above satellite
View from above satellite

Ground track
Ground track

The orbit data is extracted from the following two-line orbital elements,

1 44295U 19029BN  21129.28547285  .00001929  00000-0  47856-4 0  9996
2 44295  53.0024   7.3852 0009552  41.1505 319.0220 15.45871795111857
Epoch (UTC): 09 May 2021 06:51:04
Eccentricity: 0.0009552
inclination: 53.0024°
perigee height: 422 km
apogee height: 435 km
right ascension of ascending node: 7.3852°
argument of perigee: 41.1505°
revolutions per day: 15.45871795
mean anomaly at epoch: 319.0220°
orbit number at epoch: 11185

The dashed part of the orbit path shows where the satellite is in the earth's shadow,  

DLR